Methuen, Massachusetts, United States (01844)
Lat: 42.73N, Lon: 71.19W
Wx Zone: MAZ006
Local Info
Past Weather Observations for Saturday, January 24, 2015

NOTE: This archive is for the closest National Weather Service station to Methuen. Information may differ from the station used for current weather conditions.

Click here for Long-term Archive

Time Weather Temperature Dewpoint Humidity Pressure Winds Precip Visibility
23:54
Clear
27°F / -3°C 23°F / -5°C 86% 29.3 in
(992 mb)
SW 6.9 mph
(SW 11 kph)
- 10SM
22:54
Clear
28°F / -2°C 25°F / -4°C 86% 29.27 in
(991 mb)
SSW 8.1 mph
(SSW 13 kph)
- 10SM
21:54
Clear
28°F / -2°C 27°F / -3°C 93% 29.27 in
(991 mb)
SW 8.1 mph
(SW 13 kph)
0.00 in
(0.00 mm)
10SM
20:54
Mostly Cloudy
Unknown Precip
30°F / -1°C 28°F / -2°C 93% 29.24 in
(990 mb)
W 4.6 mph
(W 7 kph)
0.01 in
(0.25 mm)
10SM
20:39
Overcast
Light Snow
30°F / -1°C 28°F / -2°C 93% 29.24 in
(990 mb)
NW 6.9 mph
(NW 11 kph)
0.01 in
(0.25 mm)
3SM
20:29
Overcast
Light Snow
30°F / -1°C 28°F / -2°C 93% 29.24 in
(990 mb)
NW 4.6 mph
(NW 7 kph)
0.01 in
(0.25 mm)
1 1/2SM
20:18
Overcast
Light Snow
30°F / -1°C 28°F / -2°C 93% 29.24 in
(990 mb)
NW 5.8 mph
(NW 9 kph)
0.00 in
(0.00 mm)
2 1/2SM
20:14
Overcast
Light Snow
30°F / -1°C 28°F / -2°C 93% 29.24 in
(990 mb)
NW 5.8 mph
(NW 9 kph)
0.00 in
(0.00 mm)
3SM
19:54
Overcast
Light Snow
30°F / -1°C 28°F / -2°C 93% 29.24 in
(990 mb)
NNW 9.2 mph
(NNW 15 kph)
0.02 in
(0.51 mm)
2SM
19:01
Overcast
Light Snow
30°F / -1°C 28°F / -2°C 93% 29.24 in
(990 mb)
NW 10.4 mph
(NW 17 kph)
0.01 in
(0.25 mm)
1 3/4SM
18:54
Overcast
Light Snow
30°F / -1°C 28°F / -2°C 93% 29.24 in
(990 mb)
NW 9.2 mph
(NW 15 kph)
0.03 in
(0.76 mm)
2SM
18:52
Overcast
Light Snow
30°F / -1°C 28°F / -2°C 93% 29.24 in
(990 mb)
NW 9.2 mph
(NW 15 kph)
0.03 in
(0.76 mm)
2SM
17:54
Overcast
Light Snow
30°F / -1°C 30°F / -1°C 100% 29.24 in
(990 mb)
NW 6.9 mph
(NW 11 kph)
0.02 in
(0.51 mm)
1 3/4SM
17:45
Overcast
Light Snow
30°F / -1°C 30°F / -1°C 100% 29.24 in
(990 mb)
NNW 5.8 mph
(NNW 9 kph)
0.02 in
(0.51 mm)
1 3/4SM
17:05
Overcast
Light Snow
30°F / -1°C 28°F / -2°C 93% 29.21 in
(989 mb)
NNW 9.2 mph
(NNW 15 kph)
0.00 in
(0.00 mm)
2 1/2SM
16:54
Overcast
Light Snow
30°F / -1°C 28°F / -2°C 93% 29.21 in
(989 mb)
N 9.2 mph
(N 15 kph)
0.02 in
(0.51 mm)
1 1/2SM
16:33
Overcast
Light Snow
30°F / -1°C 28°F / -2°C 93% 29.21 in
(989 mb)
N 10.4 mph
(N 17 kph)
0.02 in
(0.51 mm)
1SM
16:21
Overcast
Light Snow
30°F / -1°C 28°F / -2°C 93% 29.21 in
(989 mb)
N 12.7 mph
(N 20 kph)
0.01 in
(0.25 mm)
3/4SM
16:11
Overcast
Light Snow
30°F / -1°C 28°F / -2°C 93% 29.24 in
(990 mb)
N 9.2 mph
(N 15 kph)
0.01 in
(0.25 mm)
1SM
16:01
Overcast
Light Snow
30°F / -1°C 28°F / -2°C 93% 29.24 in
(990 mb)
N 10.4 mph
(N 17 kph)
0.00 in
(0.00 mm)
1SM
15:54
Overcast
Light Snow
30°F / -1°C 28°F / -2°C 93% 29.27 in
(991 mb)
N 9.2 mph
(N 15 kph)
0.01 in
(0.25 mm)
1SM
15:32
Overcast
Light Snow
30°F / -1°C 28°F / -2°C 93% 29.3 in
(992 mb)
N 11.5 mph
(N 19 kph)
0.00 in
(0.00 mm)
1 1/2SM
15:09
Overcast
Light Snow
30°F / -1°C 28°F / -2°C 93% 29.33 in
(993 mb)
NNE 10.4 mph
(NNE 17 kph)
0.00 in
(0.00 mm)
1SM
15:01
Overcast
Light Snow
30°F / -1°C 28°F / -2°C 93% 29.33 in
(993 mb)
NNE 10.4 mph
(NNE 17 kph)
0.00 in
(0.00 mm)
3/4SM
14:54
Overcast
Light Snow
30°F / -1°C 28°F / -2°C 93% 29.33 in
(993 mb)
NE 10.4 mph
(NE 17 kph)
0.05 in
(1.27 mm)
1SM
14:09
Overcast
Light Snow
30°F / -1°C 28°F / -2°C 93% 29.36 in
(994 mb)
NNW 9.2 mph
(NNW 15 kph)
0.01 in
(0.25 mm)
1SM
13:54
Overcast
Light Snow
30°F / -1°C 28°F / -2°C 93% 29.36 in
(994 mb)
N 10.4 mph
(N 17 kph)
0.03 in
(0.76 mm)
2SM
13:49
Overcast
Light Snow
30°F / -1°C 28°F / -2°C 93% 29.39 in
(995 mb)
N 8.1 mph
(N 13 kph)
0.03 in
(0.76 mm)
2SM
13:11
Overcast
Light Freezing Rain
30°F / -1°C 28°F / -2°C 93% 29.42 in
(996 mb)
NNE 12.7 mph
(NNE 20 kph)
0.01 in
(0.25 mm)
2 1/2SM
12:54
Overcast
Light Freezing Rain
30°F / -1°C 28°F / -2°C 93% 29.42 in
(996 mb)
N 10.4 mph
(N 17 kph)
0.04 in
(1.02 mm)
2 1/2SM
12:43
Overcast
Unknown Precip
30°F / -1°C 28°F / -2°C 93% 29.44 in
(997 mb)
NNE 10.4 mph
(NNE 17 kph)
0.04 in
(1.02 mm)
2SM
12:07
Overcast
Light Snow
30°F / -1°C 28°F / -2°C 93% 29.5 in
(999 mb)
NNE 9.2 mph
(NNE 15 kph)
0.00 in
(0.00 mm)
1 1/2SM
11:54
Overcast
Light Snow
30°F / -1°C 28°F / -2°C 93% 29.5 in
(999 mb)
N 8.1 mph
(N 13 kph)
0.06 in
(1.52 mm)
2SM
11:52
Overcast
Light Snow
30°F / -1°C 28°F / -2°C 93% 29.5 in
(999 mb)
NNE 10.4 mph
(NNE 17 kph)
0.06 in
(1.52 mm)
2SM
11:31
Overcast
Light Snow
30°F / -1°C 28°F / -2°C 93% 29.53 in
(1000 mb)
NE 6.9 mph
(NE 11 kph)
0.04 in
(1.02 mm)
1SM
11:02
Overcast
Snow
30°F / -1°C 30°F / -1°C 100% 29.56 in
(1001 mb)
NE 5.8 mph
(NE 9 kph)
0.01 in
(0.25 mm)
1/2SM
10:54
Overcast
Snow
30°F / -1°C 30°F / -1°C 100% 29.59 in
(1002 mb)
NE 4.6 mph
(NE 7 kph)
0.09 in
(2.29 mm)
1/2SM
09:54
Overcast
Snow
30°F / -1°C 28°F / -2°C 93% 29.62 in
(1003 mb)
N 5.8 mph
(N 9 kph)
0.04 in
(1.02 mm)
1/2SM
09:50
Overcast
Snow
30°F / -1°C 28°F / -2°C 93% 29.62 in
(1003 mb)
NNE 6.9 mph
(NNE 11 kph)
0.03 in
(0.76 mm)
1/2SM
09:34
Overcast
Light Snow
30°F / -1°C 28°F / -2°C 93% 29.62 in
(1003 mb)
NNE 5.8 mph
(NNE 9 kph)
0.02 in
(0.51 mm)
3/4SM
09:26
Overcast
Snow
30°F / -1°C 30°F / -1°C 100% 29.65 in
(1004 mb)
NNE 4.6 mph
(NNE 7 kph)
0.02 in
(0.51 mm)
1/2SM
09:09
Obscured
Snow
30°F / -1°C 30°F / -1°C 100% 29.65 in
(1004 mb)
NE 4.6 mph
(NE 7 kph)
0.01 in
(0.25 mm)
1/2SM
08:54
Obscured
Snow
30°F / -1°C 28°F / -2°C 93% 29.68 in
(1005 mb)
NE 4.6 mph
(NE 7 kph)
0.07 in
(1.78 mm)
1/2SM
07:54
Obscured
Snow
30°F / -1°C 30°F / -1°C 100% 29.74 in
(1007 mb)
Calm 0.06 in
(1.52 mm)
1/2SM
07:39
Obscured
Snow
30°F / -1°C 28°F / -2°C 93% 29.74 in
(1007 mb)
Calm 0.04 in
(1.02 mm)
1/2SM
07:31
Obscured
Light Snow
30°F / -1°C 30°F / -1°C 100% 29.74 in
(1007 mb)
Calm 0.04 in
(1.02 mm)
3/4SM
07:22
Obscured
Snow
30°F / -1°C 28°F / -2°C 93% 29.74 in
(1007 mb)
Calm 0.03 in
(0.76 mm)
1/2SM
07:19
Obscured
Light Snow
30°F / -1°C 28°F / -2°C 93% 29.77 in
(1008 mb)
SW 3.5 mph
(SW 6 kph)
0.02 in
(0.51 mm)
3/4SM
06:54
Obscured
Light Snow
30°F / -1°C 28°F / -2°C 93% 29.77 in
(1008 mb)
SW 5.8 mph
(SW 9 kph)
0.02 in
(0.51 mm)
1SM
06:50
Obscured
Light Snow
30°F / -1°C 28°F / -2°C 93% 29.77 in
(1008 mb)
SW 5.8 mph
(SW 9 kph)
0.02 in
(0.51 mm)
1SM
06:30
Overcast
Light Snow
30°F / -1°C 28°F / -2°C 93% 29.77 in
(1008 mb)
SW 8.1 mph
(SW 13 kph)
0.00 in
(0.00 mm)
1 3/4SM
06:28
Overcast
Light Snow
30°F / -1°C 27°F / -3°C 86% 29.8 in
(1009 mb)
SW 9.2 mph
(SW 15 kph)
0.00 in
(0.00 mm)
2SM
05:54
Overcast
30°F / -1°C 23°F / -5°C 75% 29.8 in
(1009 mb)
SW 4.6 mph
(SW 7 kph)
- 10SM
04:54
Overcast
30°F / -1°C 21°F / -6°C 69% 29.8 in
(1009 mb)
SSE 6.9 mph
(SSE 11 kph)
- 10SM
03:54
Mostly Cloudy
30°F / -1°C 21°F / -6°C 69% 29.83 in
(1010 mb)
SSE 4.6 mph
(SSE 7 kph)
- 10SM
02:54
Clear
30°F / -1°C 19°F / -7°C 64% 29.83 in
(1010 mb)
SSE 5.8 mph
(SSE 9 kph)
- 10SM
01:54
Clear
28°F / -2°C 19°F / -7°C 69% 29.89 in
(1012 mb)
SSE 4.6 mph
(SSE 7 kph)
- 10SM
00:54
Clear
28°F / -2°C 18°F / -8°C 64% 29.92 in
(1013 mb)
SSE 9.2 mph
(SSE 15 kph)
- 10SM
Time Weather Temperature Dewpoint Humidity Pressure Winds Precip Visibility


Weather for websites

WeatherForYou.com, LLC is not responsible for any damages or problems caused by this service. Current weather conditions are obtained from the closest station including government and personal stations which may have varying degrees of accuracy. Weather forecasts are derived from the NOAA NDFD. Like all things, this site belongs to Jesus Christ... He just trusts me to maintain it. If you have any questions or comments email webmaster@weatherforyou.com

Copyright © 2015, WeatherForYou.com LLC. All rights reserved.